This is the latest recevied weather packets stored in our database for station/object EMGATE. If no packets are shown the sender has not sent any weather packets the latest 10 day(s).
| Time | Temp. | Humidity | Pressure | Rain* | Wind** | Luminosity | Snow |
|---|---|---|---|---|---|---|---|
| 1777718057 | 0° C | 74% | 1013.4 hPa | 0 mm | - | - | - |
| 1777717157 | -0.56° C | 75% | 1013.3 hPa | 0 mm | - | - | - |
| 1777716257 | -1.11° C | 76% | 1013.3 hPa | 0 mm | - | - | - |
| 1777715357 | -1.11° C | 75% | 1013.2 hPa | 0 mm | - | - | - |
| 1777714544 | -1.11° C | 75% | 1013.2 hPa | 0 mm | - | - | - |
| 1777714457 | -1.11° C | 75% | 1013.2 hPa | 0 mm | - | - | - |
| 1777713557 | -1.11° C | 75% | 1013.1 hPa | 0 mm | - | - | - |
| 1777712657 | -1.11° C | 75% | 1013 hPa | 0 mm | - | - | - |
| 1777711757 | -1.11° C | 75% | 1012.9 hPa | 0 mm | - | - | - |
| 1777710857 | -1.11° C | 76% | 1012.9 hPa | 0 mm | - | - | - |
| 1777709957 | -1.67° C | 75% | 1012.9 hPa | 0 mm | - | - | - |
| 1777709057 | -1.67° C | 74% | 1013 hPa | 0 mm | - | - | - |
| 1777708157 | -1.11° C | 74% | 1013 hPa | 0 mm | - | - | - |
| 1777707257 | -1.11° C | 73% | 1013 hPa | 0 mm | - | - | - |
| 1777706357 | -0.56° C | 73% | 1012.9 hPa | 0 mm | - | - | - |
| 1777705457 | -0.56° C | 72% | 1012.7 hPa | 0 mm | - | - | - |
| 1777704557 | 0° C | 72% | 1012.7 hPa | 0 mm | - | - | - |
| 1777703657 | 0° C | 72% | 1012.6 hPa | 0 mm | - | - | - |
| 1777702757 | 0° C | 72% | 1012.7 hPa | 0 mm | - | - | - |
| 1777701857 | 0° C | 72% | 1012.9 hPa | 0 mm | - | - | - |
| 1777700957 | 0.56° C | 72% | 1012.8 hPa | 0 mm | - | - | - |
| 1777700057 | 0.56° C | 72% | 1012.6 hPa | 0 mm | - | - | - |
| 1777699157 | 0.56° C | 71% | 1012.8 hPa | 0 mm | - | - | - |
| 1777698257 | 1.11° C | 70% | 1012.7 hPa | 0 mm | - | - | - |
| 1777697357 | 1.11° C | 69% | 1012.6 hPa | 0 mm | - | - | - |
* Rain latest hour (hover to see other rain measurements)
** Current wind speed in m/s (hover to see current wind gust speed)